CUTE-1 (CO-55)

Last updated on Mon Sep 21 2026 00:03:14 GMT+0000 (Coordinated Universal Time)

1 27844U 03031E 26262.30825485 .00000177 00000+0 95427-4 0 9990 2 27844 98.6773 269.7000 0008369 273.0739 86.9482 14.24383016205071
UTC large
Height (km)
Speed (km/s)
/
Latitude / Longitude
Inclination (degrees)
Orbital Period (minutes)
Azimuth
Elevation
Range (km)
Doppler Factor

Next 0 passes for location: London (51.5072 / 0.1276)

No passes found over London.
CUTE-1 (CO-55)